Wind_Speed
2 2 2 2 1 2 2 3 3 3 4 4 4 5 5 6 6 6 7 7 7 8 8 9 10 10 11 12 14 15 17 17 16 12 7 6 4 4 5 3 0 4 6 6 7 6 4 2 4 4 3 2 1 1 2 1 2 4 3 3 1 2 3 3 1 2 1 2 4 3 2 5 2 5 3 3 3 4 7 8 6 5 7 12 19 23 16 7
3 2 2 1 2 2 3 3 4 4 4 5 5 5 5 6 7 7 7 7 7 8 8 9 9 10 11 12 13 14 17 18 16 11 6 2 2 2 3 2 1 5 7 7 7 7 5 2 5 5 4 1 1 1 1 1 2 3 3 2 3 5 5 4 2 4 2 2 3 3 4 5 2 4 2 3 7 5 6 9 8 9 11 13 16 16 10 9
4 3 3 2 2 3 3 4 5 5 4 5 5 5 6 6 7 7 7 7 7 7 8 9 9 9 10 10 11 12 16 14 9 6 2 4 5 2 2 1 1 4 7 7 5 6 4 3 6 6 3 1 2 1 1 1 0 1 3 2 5 6 4 6 5 5 3 1 2 3 4 5 5 3 2 4 8 6 6 8 7 11 14 11 9 9 6 8
4 4 4 3 3 3 4 5 5 5 5 5 5 5 5 6 6 7 7 7 7 7 7 8 8 8 8 8 8 10 12 7 2 2 3 6 6 3 2 2 2 5 7 5 3 5 6 5 3 5 3 1 3 2 2 3 2 1 4 4 7 4 3 7 7 5 3 2 2 1 4 6 5 2 2 5 7 7 8 8 8 13 16 12 8 11 11 7
4 4 4 4 4 4 4 4 5 5 5 5 6 6 6 6 7 7 8 7 7 7 7 8 7 7 6 6 6 7 7 4 1 4 6 7 6 3 2 3 3 8 8 4 2 2 4 4 3 3 3 1 3 2 3 6 4 1 3 6 7 3 3 7 6 5 3 3 3 3 5 5 3 3 4 5 6 8 9 7 10 13 14 13 10 11 12 8
4 3 4 4 4 4 4 4 4 5 5 6 6 6 7 7 8 9 9 8 7 7 7 7 7 6 5 4 4 3 2 1 3 5 8 7 5 2 2 1 2 9 9 4 1 0 1 2 3 2 1 1 2 2 5 4 5 2 4 5 6 5 4 5 5 5 4 3 4 2 3 3 3 6 5 5 10 13 11 9 9 11 15 15 11 8 9 9
3 3 4 4 3 3 4 3 4 4 5 5 6 6 7 8 9 9 10 9 9 7 7 7 6 6 4 3 2 2 1 4 6 5 8 7 4 2 1 2 3 9 10 5 2 1 2 1 0 3 2 2 3 5 6 3 4 5 4 5 5 5 5 6 5 6 5 5 6 3 2 4 5 6 3 6 14 14 13 11 9 12 17 16 11 8 8 9
3 2 3 3 3 2 3 3 3 4 4 5 6 7 8 9 9 10 10 10 10 8 7 6 5 4 3 1 1 3 1 6 8 5 9 7 4 3 2 2 5 10 9 5 4 2 2 2 3 3 1 3 2 2 4 5 0 4 4 4 3 4 6 7 7 8 9 7 6 5 6 7 9 5 4 12 17 16 14 10 9 11 13 14 11 10 8 8
2 2 3 2 2 2 2 3 3 4 4 5 6 7 8 9 9 10 11 11 10 9 7 5 5 3 2 1 2 2 3 6 6 6 7 5 4 2 2 3 6 10 8 5 6 3 1 2 4 3 2 3 1 4 3 4 2 2 2 3 4 5 6 7 7 9 10 6 4 6 10 10 7 2 5 13 16 16 12 7 9 9 9 11 10 9 7 6
2 2 1 1 2 3 3 3 4 4 5 6 7 7 8 9 10 10 11 11 11 10 8 5 4 2 2 1 4 0 5 4 4 6 5 3 3 3 4 4 5 10 7 3 5 4 2 2 3 4 3 2 1 4 3 1 3 2 4 4 5 7 8 7 9 12 9 6 6 6 13 11 3 1 5 11 13 13 10 8 9 7 8 9 8 8 6 5
2 1 1 1 2 3 3 3 4 5 6 6 8 9 9 10 10 11 11 11 10 9 7 4 4 3 3 3 4 3 5 4 3 3 3 3 3 3 5 4 4 8 7 2 3 2 1 2 1 3 1 1 1 5 4 1 2 2 3 6 8 7 9 10 10 12 5 4 7 8 11 11 0 3 8 12 12 11 10 10 9 6 7 6 6 7 5 6
2 2 1 2 2 2 3 3 5 6 7 8 9 10 11 12 12 13 12 11 9 7 6 3 4 6 4 2 4 7 5 4 3 1 1 1 2 3 5 5 5 7 7 3 0 3 4 3 5 3 2 0 1 3 1 2 2 3 2 4 9 7 8 12 10 9 5 3 6 8 4 9 2 6 11 12 9 9 10 11 9 6 5 6 6 5 7 10
3 3 3 3 2 3 3 4 6 7 9 10 12 13 13 14 14 14 12 11 9 7 4 3 5 7 5 0 5 10 10 8 4 2 2 2 3 5 7 7 6 6 7 4 2 4 4 2 5 3 2 2 1 2 1 1 2 4 2 1 5 6 7 11 7 5 4 3 5 8 2 7 6 8 10 9 7 8 11 13 12 8 5 5 7 6 10 11
2 2 3 4 4 4 4 5 7 8 10 11 13 14 14 15 15 14 12 10 8 6 3 4 8 7 4 2 4 7 12 10 6 5 4 4 5 6 7 7 6 5 5 3 2 3 3 3 4 2 0 2 2 3 4 3 1 3 1 1 1 2 6 9 4 1 3 1 2 7 4 7 8 10 9 9 8 8 10 12 12 8 6 6 4 8 9 10
2 2 3 5 5 4 5 6 7 8 9 11 12 13 14 14 13 12 10 9 7 5 2 5 9 6 1 4 4 3 8 7 6 6 5 6 6 4 4 5 5 4 3 2 1 1 2 3 4 2 2 1 2 2 4 4 2 1 0 3 2 3 5 10 6 3 5 2 2 4 4 5 8 11 11 9 7 8 9 10 10 9 7 6 6 9 7 8
3 4 2 4 5 5 5 6 7 8 9 11 12 13 14 13 10 9 8 6 3 1 4 4 6 4 1 3 1 3 6 5 7 8 7 7 6 4 5 5 3 3 2 2 2 1 3 4 2 2 1 1 4 4 3 4 4 2 2 3 3 3 3 6 6 2 5 3 1 2 3 4 5 8 12 10 9 10 7 8 9 8 6 8 8 7 7 7
3 5 4 3 5 6 6 6 7 8 9 11 12 13 13 11 7 5 5 2 4 5 6 3 2 1 2 1 1 2 4 5 8 9 8 8 7 8 8 5 3 5 4 2 2 1 2 2 1 1 1 1 3 4 4 2 4 3 1 3 4 4 3 3 5 4 3 5 2 4 4 6 7 8 12 13 13 12 8 9 9 5 8 8 7 8 8 9
5 6 5 2 4 6 7 7 7 7 10 11 12 14 13 7 3 1 3 4 5 4 3 2 2 1 2 1 2 2 3 5 8 8 9 9 9 10 7 4 5 6 5 3 2 2 2 1 2 1 2 1 3 4 3 4 4 4 4 3 4 3 3 5 5 3 1 0 4 5 5 7 9 10 10 13 14 10 9 8 5 7 9 8 8 8 8 9
6 6 4 2 4 5 6 8 7 8 10 10 11 13 9 3 2 2 1 2 2 1 0 1 3 2 2 2 2 2 4 7 6 4 8 10 10 9 5 4 7 6 4 2 1 1 2 3 3 1 2 4 6 7 8 9 7 7 6 4 4 4 5 7 6 3 1 4 6 6 6 6 8 10 10 14 12 7 8 5 6 7 7 7 8 7 8 9
6 6 5 4 5 5 5 7 8 8 10 10 12 10 4 2 2 1 1 1 3 5 2 4 6 4 3 1 5 6 6 6 3 3 8 9 9 8 3 2 5 2 2 4 3 2 3 4 2 4 6 10 10 10 11 10 7 6 5 4 4 4 5 6 5 3 1 2 6 6 4 5 8 9 12 15 10 6 4 5 8 6 7 7 7 8 9 9
7 7 7 8 8 7 5 7 8 8 9 10 11 7 1 2 1 1 2 3 8 11 8 9 11 9 8 5 9 10 6 2 1 3 9 9 7 7 2 2 4 1 3 5 2 0 4 4 6 10 12 12 8 8 9 7 6 5 4 3 4 4 5 6 5 4 1 1 5 4 3 6 9 8 14 15 7 5 1 8 7 7 8 6 8 9 8 8
8 8 8 9 10 9 7 9 9 9 8 8 8 3 3 2 1 2 1 3 8 10 11 13 11 11 11 7 9 10 5 1 2 3 8 8 5 5 3 4 5 4 3 4 3 1 2 4 10 13 11 8 5 5 7 6 5 4 3 1 3 4 3 6 6 3 1 1 4 5 4 7 9 9 15 11 4 3 3 8 6 7 8 6 8 7 7 8
9 8 9 9 9 10 10 10 11 10 7 4 4 1 3 2 2 3 2 1 7 7 7 9 8 8 8 4 6 8 4 4 3 4 8 9 3 4 5 5 6 4 3 6 5 5 4 6 13 13 8 6 6 7 6 5 3 3 2 1 4 4 0 4 5 4 2 2 4 4 5 6 7 9 10 5 7 7 7 10 7 7 9 8 8 7 8 8
11 9 9 8 9 10 10 12 12 9 5 2 2 0 2 1 2 3 1 0 4 5 4 5 4 4 4 3 5 6 3 3 3 4 10 11 4 3 5 6 7 5 4 9 10 8 7 8 8 8 6 7 8 8 6 4 3 3 4 4 5 5 5 6 4 3 4 3 1 2 4 5 5 8 5 3 7 7 7 9 9 7 7 8 8 8 8 8
12 10 10 9 9 10 10 11 10 4 2 3 2 1 2 0 3 3 1 1 3 4 2 2 1 1 2 4 4 4 1 1 1 2 9 10 4 2 3 4 5 5 7 9 9 7 8 7 4 5 6 6 7 7 5 5 2 4 4 8 9 8 8 6 1 4 4 5 3 3 3 6 5 7 7 3 4 5 5 6 8 6 6 6 8 8 8 7
11 10 11 11 11 10 8 6 4 2 3 4 5 3 1 1 2 2 1 2 3 4 0 1 0 2 3 2 2 3 2 2 2 1 5 4 2 1 3 3 2 4 6 5 4 3 5 4 2 5 7 5 6 6 5 6 3 3 4 6 7 6 6 5 2 3 1 3 3 3 1 6 4 3 8 6 5 6 4 6 6 5 5 5 6 7 6 7
13 13 12 12 13 11 5 2 4 4 3 4 7 5 2 1 2 2 1 2 3 2 3 0 1 2 3 1 2 4 2 2 1 2 2 1 2 1 2 3 2 3 3 3 1 3 4 3 3 4 4 4 5 5 5 7 6 3 5 4 5 5 5 5 4 2 3 2 4 2 3 5 5 4 11 7 6 5 4 6 5 5 5 5 6 7 7 6
17 17 15 15 16 15 10 5 4 4 4 4 6 5 2 2 3 1 3 1 3 2 2 1 1 2 1 1 2 4 2 1 3 0 2 3 2 3 1 4 3 3 3 5 3 5 2 4 4 5 4 4 5 5 4 8 6 5 5 4 5 5 5 3 5 2 2 2 4 5 4 3 5 6 9 4 6 5 5 6 5 5 5 5 6 6 7 6
20 19 17 18 17 16 14 11 7 5 6 7 6 3 2 3 2 3 2 2 0 2 1 0 2 1 1 2 1 2 1 1 2 1 2 2 1 2 1 4 2 2 3 4 5 5 0 5 6 6 5 5 5 2 2 7 5 4 4 4 5 3 3 4 4 3 2 2 4 6 5 3 4 6 5 2 5 6 5 6 5 6 6 6 6 6 6 6
22 20 20 20 15 13 12 14 15 9 6 7 4 3 3 2 2 3 3 4 1 1 0 1 1 1 3 3 1 1 2 1 1 1 2 1 2 3 1 1 2 2 2 3 2 4 2 1 3 4 4 5 4 2 3 4 4 3 5 5 6 5 4 4 2 4 3 3 6 8 8 6 4 6 4 2 4 8 8 6 6 6 6 6 5 6 6 5
24 22 21 18 14 13 10 10 18 16 9 7 3 3 2 1 1 4 5 2 1 1 2 1 1 3 4 4 2 3 2 1 1 3 2 1 2 3 1 1 2 3 3 5 4 4 3 2 2 2 3 4 5 2 3 3 3 4 5 4 4 4 4 4 4 4 2 5 7 7 8 8 5 5 4 2 1 9 12 9 11 10 7 7 5 5 5 5
23 22 19 17 14 14 11 6 13 20 15 8 4 2 2 2 3 4 2 1 1 2 3 2 3 3 4 4 3 4 4 2 2 3 3 3 3 2 3 3 4 2 2 3 2 3 2 4 4 2 1 4 6 2 3 5 4 5 4 5 3 2 3 2 2 0 3 6 6 4 3 4 6 7 6 3 4 2 5 7 11 12 9 7 6 5 5 4
21 19 16 17 16 15 13 7 8 17 18 10 4 2 2 3 4 3 3 2 1 2 3 3 3 4 5 3 3 4 4 2 5 4 3 4 4 4 5 4 5 3 1 4 1 2 3 5 2 1 3 2 7 5 2 2 1 5 4 5 4 2 1 3 4 2 3 5 6 4 0 1 4 5 4 4 5 4 8 10 9 10 9 8 6 5 5 4
18 17 16 18 19 16 15 11 7 13 17 11 5 2 3 4 3 3 5 5 1 1 1 3 4 3 3 3 3 4 4 2 5 6 3 4 3 3 4 5 5 2 2 3 2 2 2 5 3 5 2 3 8 6 5 4 4 5 5 5 5 4 4 4 4 3 3 4 5 4 1 2 3 2 4 5 6 7 10 11 9 9 7 7 6 5 5 5
17 17 15 16 20 18 16 14 10 11 15 10 4 4 5 4 1 2 5 5 1 2 1 2 4 2 0 2 2 3 3 2 4 5 4 5 4 4 4 4 7 5 3 2 2 2 3 5 5 2 1 6 7 4 4 6 1 3 3 4 2 4 5 2 3 5 3 2 4 3 2 4 3 3 5 5 7 9 9 9 10 8 6 6 5 5 5 4
15 15 13 15 19 20 19 16 13 14 15 7 4 6 5 3 2 3 2 2 2 3 3 1 2 2 2 2 2 3 1 1 4 4 2 4 4 4 5 3 6 8 6 4 3 2 2 5 4 2 1 5 6 2 2 3 1 1 2 2 4 4 6 2 4 2 2 2 4 3 4 4 0 2 4 6 8 8 6 7 8 6 6 6 5 4 4 4
13 11 8 12 17 21 22 18 15 17 12 4 6 7 4 3 4 3 1 1 2 3 4 2 1 3 4 2 2 4 1 1 3 3 2 3 3 4 5 2 1 7 8 4 2 3 3 3 5 1 1 4 4 3 1 1 3 4 2 5 3 1 3 3 1 2 1 4 4 3 6 5 2 2 1 5 5 5 4 5 6 5 6 5 5 5 5 5
11 7 4 11 18 21 22 21 19 15 6 4 8 7 4 4 4 3 2 2 3 3 3 3 3 3 3 2 2 2 3 1 2 3 1 2 3 2 4 1 3 1 1 3 2 2 3 1 6 1 3 3 1 3 2 4 2 4 3 3 1 1 1 0 1 1 4 5 4 5 7 5 4 4 2 4 6 7 6 6 6 6 6 6 6 5 5 5
9 4 2 9 17 19 21 23 18 10 4 5 9 7 4 3 3 3 3 3 3 3 3 3 2 1 1 2 1 0 2 2 2 2 1 2 3 0 3 1 1 4 5 4 4 1 2 2 5 3 0 1 4 3 2 2 2 2 1 2 1 3 3 2 2 3 3 5 5 5 5 4 4 4 5 8 9 9 8 7 6 7 7 7 6 6 6 6
6 1 1 5 13 19 22 20 11 5 5 5 5 3 2 2 2 2 3 4 3 2 3 3 2 2 1 1 1 0 1 1 0 1 1 1 2 2 2 1 2 2 5 6 4 1 2 2 3 4 3 1 1 1 4 4 0 1 2 2 1 1 1 1 2 3 3 4 4 5 5 4 3 2 3 7 9 10 10 9 7 7 7 6 6 6 6 6
3 1 1 5 14 21 20 12 5 3 4 3 2 2 2 2 1 1 2 3 3 1 1 3 4 3 2 1 1 2 1 1 1 0 2 2 1 1 1 2 2 1 3 5 3 1 1 2 2 2 2 1 4 4 4 5 4 3 2 2 3 2 1 3 4 3 3 3 4 5 6 5 3 2 2 1 5 7 8 8 6 6 7 7 7 7 7 6
2 1 2 7 18 22 15 6 4 4 4 4 3 2 2 3 2 2 2 3 3 1 1 2 4 4 3 4 3 3 3 2 3 3 3 4 4 2 2 1 2 3 3 2 0 1 2 2 1 3 4 4 6 5 1 3 4 4 2 2 3 3 3 3 5 4 2 2 2 2 4 4 2 2 2 3 5 5 7 8 7 7 8 8 8 8 7 6
2 1 2 10 20 20 10 6 6 5 4 2 2 1 1 2 2 3 4 2 2 3 2 2 4 5 5 5 5 4 4 4 6 6 4 5 5 2 3 2 2 3 3 2 1 1 3 3 1 3 4 3 5 4 4 3 1 2 2 0 2 3 3 4 4 2 1 2 3 3 5 4 1 3 2 3 5 5 5 7 9 8 8 8 8 8 7 6
2 1 2 9 20 17 7 6 6 6 5 2 2 4 2 1 4 5 5 6 4 4 4 3 4 6 6 6 6 7 6 4 5 7 6 4 3 1 3 1 3 2 0 2 3 1 1 1 2 1 2 5 5 5 5 5 3 1 2 1 2 1 1 0 1 1 1 4 5 5 5 3 1 1 2 4 5 5 6 7 8 8 7 7 7 7 6 6
2 1 1 5 14 12 5 3 3 4 7 6 4 6 4 3 5 7 7 7 6 5 4 3 4 6 5 5 5 6 7 5 3 3 3 3 2 2 4 3 4 3 1 2 3 3 2 2 3 3 4 5 4 3 2 1 2 0 2 3 2 2 3 2 1 1 2 2 2 3 5 3 3 3 3 4 4 5 7 7 6 6 7 7 7 6 6 5
3 2 1 2 5 6 5 2 2 3 6 7 6 6 8 7 4 5 8 7 6 6 4 1 3 4 4 6 6 6 7 6 3 2 2 3 2 1 2 4 4 3 3 3 4 4 3 1 3 5 6 7 6 5 4 2 1 3 4 6 7 6 2 2 2 2 2 1 3 7 8 7 8 9 5 3 5 7 7 7 7 7 7 7 5 5 5 5
2 2 4 4 3 5 6 5 5 4 4 6 6 5 9 11 5 3 6 6 6 7 4 1 4 5 6 8 7 6 6 6 6 5 4 4 2 1 2 4 4 2 3 4 3 3 4 2 3 5 6 6 5 4 1 3 2 4 6 8 10 9 5 3 4 4 2 2 7 11 10 8 10 11 7 5 6 7 7 7 7 8 6 4 4 6 6 6
2 1 2 2 2 5 8 9 10 10 8 7 6 5 9 12 10 6 5 3 4 6 5 3 6 8 8 8 7 5 6 6 6 6 5 4 3 2 2 3 2 1 3 3 2 4 5 3 4 4 3 6 4 2 2 2 2 4 6 9 11 12 10 6 6 8 6 6 10 11 11 11 11 9 8 7 7 6 5 5 4 2 2 5 6 6 7 6
2 1 2 2 1 4 7 10 12 13 13 10 6 8 10 11 11 7 4 3 3 5 7 6 8 10 9 7 7 6 6 7 5 5 5 4 4 4 2 1 1 1 4 3 1 3 4 2 2 3 2 6 5 2 2 1 2 5 7 10 12 12 11 7 9 11 9 9 12 12 13 14 12 9 7 6 5 4 2 1 2 4 5 7 7 7 7 6
1 1 1 2 2 2 3 5 9 9 10 10 8 9 8 8 8 5 3 5 5 5 7 8 8 9 10 9 7 6 7 7 6 6 5 5 3 3 3 2 1 2 3 2 0 1 2 1 1 3 1 5 4 1 2 1 4 6 10 13 13 12 11 10 11 10 9 11 14 12 12 12 9 6 5 3 2 3 4 4 3 4 6 6 6 6 6 6
3 2 1 2 2 2 1 3 6 6 6 8 9 9 8 9 8 5 1 3 5 4 7 11 9 6 5 7 7 6 5 5 7 6 5 6 5 3 2 3 4 4 2 1 1 1 2 1 0 4 2 6 3 4 0 4 4 7 14 18 16 12 10 11 9 8 10 12 11 9 9 8 6 4 3 1 4 4 4 4 3 2 4 6 6 6 6 6
5 4 2 2 2 3 3 3 5 6 6 7 7 8 9 9 6 6 2 2 2 2 4 9 9 5 4 7 7 7 6 7 8 6 5 5 4 4 3 3 5 6 4 3 1 0 3 3 1 3 2 5 3 4 3 1 3 8 12 14 15 13 10 10 9 11 12 9 7 8 8 6 5 5 4 0 2 3 4 4 3 2 1 3 5 5 5 5
Wind_Direction
279 275 267 263 283 303 313 314 311 299 305 314 315 318 315 317 315 312 316 321 326 325 326 326 329 332 332 333 334 332 329 326 323 313 281 283 291 302 330 346 313 177 167 153 148 149 149 171 214 170 105 14 50 104 348 349 73 55 80 98 276 226 211 213 268 313 209 251 292 299 56 81 349 326 332 314 323 290 296 295 274 274 260 248 256 267 278 239
303 301 296 281 273 297 310 310 317 315 317 321 325 325 323 325 317 315 316 322 327 322 324 324 327 330 331 335 332 333 329 323 321 310 290 281 218 266 329 350 173 175 169 162 167 171 158 202 212 157 88 13 325 48 352 318 92 93 124 135 227 213 230 256 294 329 327 268 319 349 27 45 333 298 344 294 286 295 297 289 298 298 277 268 267 271 274 230
315 316 319 320 302 311 316 315 325 329 325 320 326 331 331 328 320 319 317 321 323 320 322 320 323 327 329 331 331 335 328 325 329 319 1 115 159 198 353 24 150 171 172 163 180 204 210 249 198 157 76 339 272 72 69 330 120 164 129 161 240 224 263 294 302 326 317 203 36 346 353 358 294 283 352 277 281 289 267 262 285 290 282 280 280 288 280 219
317 323 323 325 320 321 321 322 328 329 326 325 333 336 334 327 319 319 321 327 326 324 321 317 323 325 327 328 331 333 329 342 347 265 134 132 153 152 44 45 121 159 171 168 203 238 268 298 169 146 78 300 293 79 150 227 195 179 140 185 232 226 285 282 291 316 322 70 84 306 341 329 288 279 285 276 292 286 260 236 237 263 274 278 278 292 294 244
319 328 328 325 323 325 321 323 327 325 323 328 335 337 335 325 320 321 324 330 333 333 326 322 327 328 332 330 329 332 345 29 249 216 151 142 148 152 63 56 136 166 174 182 217 236 287 322 68 77 58 283 312 54 220 219 164 187 202 207 228 234 277 273 292 313 311 17 18 340 331 292 286 309 263 265 274 265 263 240 228 245 264 274 277 285 291 280
317 322 322 317 321 321 315 324 329 326 328 331 333 335 333 324 323 322 320 325 331 333 325 325 330 332 335 326 321 327 9 107 231 188 165 161 156 162 59 44 178 174 178 177 196 310 316 348 45 66 85 264 266 220 249 236 156 208 259 235 235 233 252 273 301 303 299 336 313 299 280 265 323 303 258 243 252 255 266 256 240 253 265 274 279 281 283 284
313 320 313 311 319 317 315 334 339 337 338 336 334 335 332 326 326 321 319 320 321 327 323 322 325 329 334 320 308 346 102 231 256 229 203 189 182 246 311 268 195 179 186 170 164 183 144 64 48 178 149 275 238 223 268 304 168 195 271 275 258 259 266 285 303 305 306 293 273 274 317 294 277 280 298 272 263 263 268 262 253 261 272 280 282 277 270 272
315 318 309 312 328 327 330 351 355 351 347 346 343 339 335 330 327 322 320 317 315 319 320 320 320 326 339 296 271 358 355 242 254 234 207 199 222 263 260 235 188 186 188 180 194 188 141 163 218 197 198 259 247 266 305 357 197 199 248 275 298 300 291 301 309 305 302 289 282 302 299 264 243 263 311 277 275 276 272 273 268 264 274 280 280 277 271 268
318 311 308 324 357 6 10 11 8 5 359 355 348 341 336 330 326 324 321 318 317 315 315 316 305 296 281 236 88 15 271 241 239 213 198 204 225 226 209 194 183 190 184 197 221 224 192 201 226 191 176 239 318 318 328 31 301 251 292 307 329 311 297 305 300 289 289 280 274 290 280 262 247 281 286 266 269 275 283 294 277 272 274 272 277 279 276 274
320 320 322 8 28 28 24 19 11 9 2 354 347 340 334 328 325 322 319 317 316 312 313 309 287 257 224 194 92 71 260 253 239 212 191 183 177 163 175 166 176 193 188 216 246 253 217 193 228 169 157 243 316 301 323 95 235 292 355 331 308 303 302 295 285 280 280 273 252 249 269 270 243 159 273 268 266 280 303 304 286 286 278 276 288 291 293 309
356 351 3 41 46 35 24 14 6 3 356 349 343 338 333 329 326 321 317 314 310 308 309 293 261 225 185 141 133 214 255 260 250 188 143 137 138 151 170 165 180 196 200 240 284 307 114 133 116 124 155 320 335 313 319 231 249 309 7 338 305 315 313 287 279 276 266 268 234 204 257 280 80 168 249 264 275 296 305 294 292 291 289 302 305 301 330 9
52 50 53 51 57 39 25 6 2 360 350 347 342 338 336 332 329 323 319 314 308 304 296 272 235 207 163 106 201 227 242 237 223 143 124 142 150 184 182 180 192 199 209 222 350 53 81 103 84 102 231 88 355 319 288 231 316 318 27 345 299 329 313 278 272 260 205 215 212 161 263 291 253 215 242 260 279 301 302 299 299 291 306 327 310 330 28 39
51 49 44 35 28 14 13 5 3 359 352 349 342 338 335 331 329 325 322 318 311 301 283 237 203 187 156 127 237 229 231 224 220 239 238 233 228 214 199 192 192 201 211 204 146 79 69 84 99 135 225 93 276 273 95 323 6 315 13 120 290 349 308 271 272 260 191 197 178 135 230 280 255 242 251 269 289 307 308 304 303 313 333 312 309 24 54 43
18 17 22 9 6 1 5 9 5 357 352 346 340 336 331 328 326 322 320 317 312 300 274 196 181 167 143 248 258 236 227 223 234 242 222 213 209 206 208 204 201 202 207 199 162 83 61 60 82 87 284 135 217 311 0 349 331 295 353 134 281 13 283 282 296 84 113 266 140 129 219 262 270 274 270 272 285 298 298 293 300 317 319 303 339 60 64 46
346 336 8 353 342 357 13 14 4 355 350 342 336 331 325 324 322 320 318 313 312 295 235 167 168 149 66 276 272 229 209 208 211 202 186 187 183 190 209 203 205 201 204 204 158 66 71 71 75 82 287 248 111 19 349 340 315 274 220 297 297 165 263 298 294 173 148 272 32 127 225 265 273 278 276 272 280 287 285 290 300 307 317 350 47 69 67 51
316 309 341 338 323 350 17 11 359 352 347 339 331 324 321 320 319 321 318 315 332 114 120 133 166 146 356 275 233 163 185 193 191 182 175 180 182 181 161 148 165 164 171 195 155 115 100 86 75 130 252 332 101 102 41 2 326 308 186 244 263 202 257 304 303 272 147 135 16 208 239 276 274 277 284 287 286 287 290 292 298 312 359 48 65 59 55 45
255 281 294 314 324 353 12 1 349 344 341 334 325 320 319 314 311 329 343 36 106 110 91 74 163 159 296 242 141 202 191 189 185 181 184 183 176 163 146 125 129 134 108 96 124 101 80 91 147 145 67 66 136 111 62 340 293 301 232 217 244 228 226 278 304 325 91 113 242 250 236 254 270 282 290 294 290 294 306 305 314 8 59 67 67 57 52 44
232 262 279 330 345 352 2 352 342 337 334 329 324 321 320 313 277 304 33 88 107 93 49 23 106 127 284 231 206 204 156 171 176 183 193 181 165 161 155 131 129 123 91 50 42 73 47 36 96 60 357 61 162 138 150 229 221 226 238 236 264 259 246 263 272 285 28 8 254 249 247 257 273 280 283 282 282 296 310 315 0 67 81 75 68 66 57 49
248 270 281 333 338 336 348 347 341 336 330 323 324 323 326 341 270 237 103 88 95 104 64 201 160 163 249 217 189 130 116 150 155 177 186 170 165 172 175 140 127 113 95 69 337 141 122 52 63 89 264 223 202 184 197 215 204 211 228 219 239 261 265 260 259 258 261 281 266 246 250 262 273 279 282 278 283 315 320 350 64 80 78 76 73 68 61 56
267 282 296 308 310 317 335 338 337 339 332 322 329 333 340 37 4 314 228 193 215 219 219 204 198 231 277 193 141 136 132 145 146 179 172 165 164 164 169 115 106 72 116 149 193 209 121 100 151 200 220 227 216 202 209 222 223 229 242 241 236 244 263 269 275 283 145 257 264 247 253 274 274 282 283 279 301 343 336 66 82 80 73 74 73 67 62 58
261 272 288 297 300 308 325 333 333 336 331 321 326 338 108 129 36 307 286 268 249 241 245 239 223 238 249 191 157 158 147 140 267 194 171 168 155 149 175 122 114 218 214 153 148 127 103 136 210 217 223 233 224 207 216 232 238 230 218 241 260 249 261 274 274 278 112 168 267 283 324 290 279 284 281 285 329 352 67 109 100 90 84 73 72 69 62 60
250 265 274 282 293 307 322 330 329 329 325 317 322 337 135 128 146 183 230 298 278 250 241 251 244 245 241 206 181 173 152 174 242 233 185 169 158 172 188 138 147 208 186 123 98 118 141 211 233 227 228 248 259 230 234 250 243 220 187 181 264 260 283 293 295 312 62 134 268 300 319 283 277 275 281 298 42 55 60 95 102 96 92 76 72 70 64 62
232 256 269 275 288 306 322 325 321 321 316 306 328 5 128 114 144 161 148 288 290 261 230 243 242 242 239 211 177 164 168 201 194 244 197 165 167 198 171 155 179 203 160 154 162 160 181 235 238 234 235 252 266 260 254 269 268 234 207 207 269 266 231 277 299 328 314 233 243 284 294 276 276 273 287 344 88 97 75 84 85 84 92 86 81 74 69 66
223 240 256 271 287 300 314 316 311 310 298 272 322 26 113 105 192 170 145 238 281 270 237 228 221 224 217 171 157 156 192 212 168 223 192 169 164 172 173 177 179 196 198 190 186 183 209 229 226 227 227 217 239 265 257 238 273 263 208 199 243 251 213 221 268 324 321 307 274 3 324 287 257 258 273 61 96 100 95 94 83 78 89 93 89 78 71 69
224 235 244 258 275 286 297 306 307 297 227 214 228 179 115 118 211 177 109 334 281 289 286 226 186 148 140 115 144 153 156 217 205 205 181 179 181 149 197 196 170 206 216 198 194 204 235 241 210 220 235 206 211 248 231 188 241 295 233 210 224 236 229 224 275 23 14 327 320 53 353 290 250 243 251 210 117 90 87 89 87 87 83 86 85 79 76 70
231 240 246 253 255 262 281 299 291 227 202 221 212 192 167 252 207 178 79 25 282 272 218 166 137 160 157 119 140 126 81 266 287 105 149 181 241 148 197 222 168 212 211 191 194 213 236 241 176 208 229 204 201 242 225 166 150 276 248 208 204 206 203 201 146 73 99 259 299 58 96 274 267 235 257 242 133 106 90 81 88 88 76 83 83 80 80 69
250 248 247 250 243 237 243 255 232 215 215 223 201 195 230 256 215 203 72 5 283 209 128 261 358 132 163 168 140 123 153 243 20 35 90 80 311 48 176 221 168 206 212 115 101 243 198 155 107 150 172 170 191 243 230 160 136 233 242 151 131 140 160 174 133 126 224 245 323 335 172 262 280 227 248 239 131 122 114 91 88 87 77 81 82 80 79 70
256 253 246 244 238 230 229 230 238 235 216 186 172 188 216 206 206 122 77 307 281 108 104 287 59 88 125 73 91 116 179 199 106 302 1 57 349 39 127 227 178 218 244 122 183 263 183 162 185 159 144 174 203 238 204 152 153 239 222 128 107 131 148 138 117 140 279 353 309 262 186 250 278 247 252 222 141 173 166 133 126 114 103 94 91 87 79 73
255 256 246 238 232 227 228 231 240 244 202 164 141 153 165 178 179 76 88 231 300 74 39 41 96 43 46 64 38 113 114 34 138 226 359 58 6 54 168 229 161 243 269 142 194 258 171 184 194 145 149 204 211 256 130 149 184 226 159 101 60 76 89 83 113 119 24 353 249 225 186 213 270 274 270 157 166 203 176 149 147 132 127 116 105 97 85 78
251 251 240 229 220 216 218 226 230 225 185 165 141 102 131 153 115 113 206 223 81 81 89 69 147 147 102 98 310 212 130 62 133 81 27 66 24 20 318 249 75 82 344 9 240 254 316 239 195 142 176 193 162 103 72 132 167 132 96 59 26 17 38 51 77 84 62 289 248 220 198 194 262 286 249 191 191 172 151 152 154 135 127 118 105 98 90 82
240 239 232 220 213 207 197 217 224 214 192 179 156 88 128 136 125 186 215 205 77 166 129 100 192 129 133 143 166 191 152 107 130 108 92 103 54 20 359 347 42 57 13 341 307 288 324 325 245 225 195 139 114 104 26 38 93 99 84 70 37 345 15 31 7 46 112 254 259 234 200 186 227 264 234 264 237 157 156 167 162 147 133 121 105 97 95 89
224 226 222 212 206 199 191 212 220 209 207 200 160 102 134 187 210 210 202 134 173 193 155 172 185 158 180 189 185 186 162 140 178 153 145 143 143 194 199 182 157 85 333 257 281 315 279 237 235 278 268 142 124 124 344 358 35 87 92 91 83 327 359 18 303 188 210 250 258 239 173 182 230 252 254 323 2 129 138 139 147 140 129 122 110 102 96 88
210 213 210 206 199 194 198 210 206 203 206 198 164 120 140 203 220 188 171 196 199 165 129 124 164 174 173 183 209 185 159 164 181 179 163 137 157 225 246 232 181 133 201 203 218 325 301 296 256 156 301 186 146 161 227 292 139 137 140 133 135 163 182 242 252 244 258 264 263 257 242 261 264 280 303 12 21 39 84 96 115 119 118 120 114 109 100 87
203 201 200 201 196 195 201 199 191 195 192 180 157 151 171 207 228 172 195 219 201 121 96 99 140 163 159 184 213 165 158 209 177 167 162 137 154 232 255 255 222 168 140 168 195 187 223 300 229 176 250 182 167 189 175 145 161 177 162 141 148 163 167 205 221 210 245 269 282 292 302 215 226 325 11 46 48 56 82 95 101 103 110 115 112 109 102 95
197 196 199 200 196 197 198 201 207 192 179 166 150 186 192 200 204 178 206 221 182 111 43 63 106 109 263 263 253 177 158 205 177 156 166 166 173 199 205 221 207 183 137 155 230 186 191 262 244 196 203 161 175 223 140 112 114 220 142 116 173 192 161 183 220 188 187 272 285 278 248 215 172 82 43 57 63 62 74 92 100 104 110 108 109 111 112 114
191 193 200 202 201 199 197 206 213 189 175 163 173 200 208 209 187 190 219 218 165 123 107 56 83 122 246 291 269 229 141 124 173 158 193 196 192 208 208 211 195 184 169 162 212 195 175 263 273 29 6 180 177 207 157 138 195 188 125 178 223 188 135 128 277 237 129 245 250 228 261 285 89 82 40 53 69 74 79 92 102 111 110 108 118 132 137 139
183 186 201 209 207 200 197 205 202 185 179 181 202 204 200 210 208 206 228 103 122 108 120 178 181 170 209 249 247 223 159 37 170 159 218 222 216 215 203 223 204 187 186 171 207 201 152 263 272 151 192 233 180 151 324 346 133 129 166 223 235 32 85 105 266 311 290 252 254 238 250 272 267 246 24 69 95 115 130 122 117 118 117 128 152 162 166 165
173 175 220 226 213 200 197 200 191 180 182 206 211 211 188 203 224 206 183 123 105 90 116 190 206 174 178 190 240 205 149 166 184 167 201 230 228 194 163 191 9 26 197 114 134 223 120 278 286 245 174 254 82 103 320 335 58 130 183 215 144 80 309 19 134 208 252 256 277 264 247 245 238 225 160 158 178 169 162 150 142 149 154 165 175 179 185 180
156 151 280 235 212 199 196 194 183 175 208 213 209 211 183 197 224 189 151 110 92 101 146 194 191 146 145 146 178 64 119 165 191 170 166 223 231 118 89 140 39 10 6 84 129 246 90 145 279 315 84 286 29 65 200 267 349 47 43 354 54 152 182 217 197 182 224 253 269 270 255 250 250 220 182 195 190 168 164 167 173 181 180 182 183 183 190 188
146 136 314 217 199 193 188 185 180 186 222 212 199 194 163 181 215 174 132 121 112 122 174 182 159 171 191 133 190 243 48 28 131 160 239 260 276 346 30 57 94 29 12 55 96 43 60 154 240 315 342 8 34 203 177 173 229 5 6 331 302 239 201 266 249 188 185 229 251 262 257 251 261 256 207 200 179 166 171 174 180 188 186 192 195 193 198 198
139 151 207 187 185 180 173 175 194 204 215 215 176 168 167 164 167 130 104 114 122 105 129 157 167 170 175 224 213 156 105 343 314 271 263 268 311 338 317 10 68 117 36 42 51 57 95 179 198 278 302 204 230 236 154 126 130 142 171 222 214 210 231 270 263 219 184 205 224 245 264 264 260 311 330 158 151 160 167 161 166 180 186 197 206 205 204 200
133 137 156 174 177 173 166 187 211 184 216 222 178 170 157 139 151 172 137 95 112 141 106 151 176 179 195 217 207 166 162 208 233 234 239 239 234 227 256 310 78 105 95 87 47 64 102 118 152 254 244 219 240 254 165 133 163 166 178 200 190 177 163 214 249 239 216 259 256 245 267 265 253 327 24 90 124 143 149 151 162 181 194 201 206 209 207 202
138 137 133 165 176 176 179 211 199 189 228 209 148 207 171 139 182 185 169 156 142 155 166 174 180 194 211 204 195 195 186 193 219 216 213 230 228 246 291 264 113 76 84 135 197 30 72 95 167 268 287 293 285 305 2 24 84 208 277 47 160 184 165 188 220 208 191 257 277 271 262 249 276 352 39 109 116 131 160 170 173 186 201 205 205 206 203 200
123 92 81 165 180 188 206 214 195 204 216 178 159 215 213 187 198 184 176 186 180 163 171 184 186 198 210 197 192 199 188 194 232 220 201 202 195 61 356 22 105 85 111 184 182 162 127 141 136 150 306 316 322 335 354 7 41 151 266 283 145 161 350 243 186 116 171 223 226 242 255 235 202 7 101 120 126 155 196 200 186 190 204 209 210 207 197 193
119 106 21 181 188 197 229 228 195 219 212 201 208 208 212 235 209 190 185 186 185 172 167 186 189 185 187 182 188 202 196 193 224 229 196 189 189 23 18 47 92 111 182 183 140 133 150 168 135 135 207 244 267 265 246 308 14 58 281 296 277 262 280 281 276 230 227 233 213 233 254 256 248 228 161 149 176 201 219 224 214 215 215 210 207 199 188 182
137 179 181 181 193 211 241 233 206 240 215 203 217 216 212 224 225 185 187 194 195 180 165 160 158 159 175 178 183 209 213 199 188 197 187 179 203 332 29 50 67 118 147 97 85 96 105 182 173 163 200 227 231 225 200 121 95 267 286 296 289 281 254 159 172 224 226 288 271 248 250 261 272 271 250 200 209 220 231 232 226 233 234 220 199 171 162 167
172 195 181 171 181 212 227 225 217 230 214 193 200 213 213 217 225 196 194 202 189 172 170 182 166 174 188 184 188 209 207 192 189 196 190 168 154 32 43 55 56 103 123 82 57 88 103 244 224 170 206 237 219 224 266 74 152 229 257 276 277 276 262 195 202 223 216 273 263 256 261 263 263 269 272 260 243 238 239 234 227 234 233 195 149 136 144 162
210 214 201 192 189 203 209 209 208 216 222 211 203 213 219 215 210 206 202 192 167 169 184 213 199 195 188 175 179 193 188 190 199 194 184 171 150 116 33 24 24 58 77 60 10 89 114 239 242 154 218 263 256 278 351 53 205 224 239 258 264 266 264 251 237 232 218 233 254 262 270 268 262 267 274 270 254 235 228 233 237 232 150 127 132 146 162 178
223 280 275 294 271 215 215 205 198 207 218 217 217 225 225 217 211 206 172 140 174 197 199 210 206 197 193 181 172 179 186 190 203 202 180 169 167 163 153 332 314 38 74 83 13 78 109 238 247 146 219 274 273 293 32 69 257 265 258 253 255 262 264 257 248 245 235 236 250 261 267 268 271 272 263 249 226 193 173 129 83 105 125 135 150 169 184 197
189 265 271 336 313 253 258 216 193 203 217 213 219 227 224 220 214 197 151 170 189 201 201 204 194 184 193 194 178 193 203 180 180 199 176 158 180 183 174 197 194 85 68 90 242 18 88 188 231 108 67 287 272 100 66 266 252 270 273 265 259 262 264 258 254 255 256 252 251 256 261 265 270 261 240 221 140 104 82 73 90 131 152 152 164 187 198 206
266 278 136 36 301 227 206 210 189 197 216 212 217 221 218 224 211 167 168 220 180 180 202 195 175 151 173 185 177 199 211 155 152 171 155 153 175 173 169 186 160 139 122 132 153 24 85 162 302 78 73 282 280 99 121 282 286 277 271 264 257 253 250 251 247 238 240 249 256 260 257 257 259 238 221 93 79 96 104 105 101 125 157 157 171 197 206 211
271 278 171 127 283 238 195 189 188 199 214 212 216 217 218 230 206 153 179 288 122 173 227 190 169 133 136 174 180 183 169 135 133 139 124 118 114 100 108 131 133 137 146 151 147 114 122 130 130 105 132 271 283 115 146 314 325 274 259 251 249 249 245 248 249 241 237 239 248 252 246 244 241 221 213 186 101 132 145 145 125 85 145 181 192 205 215 223
Height
825 825 825 825 825 825 825 824 824 824 824 824 823 823 823 823 822 822 822 822 822 821 821 821 820 820 819 818 818 816 815 814 813 812 811 810 810 811 811 811 811 811 812 812 813 813 813 814 814 814 815 815 816 817 817 816 816 822 829 837 840 838 834 825 822 822 820 819 816 814 813 814 815 812 807 805 806 807 805 802 800 798 796 794 792 789 791 792
824 824 824 824 824 824 824 824 823 823 823 823 823 823 822 822 822 821 821 821 821 821 821 820 820 820 819 818 817 816 814 812 811 810 809 808 810 811 811 810 811 811 811 812 812 813 813 814 814 814 816 818 818 818 820 818 818 825 831 838 837 832 824 817 817 817 816 817 814 812 812 812 814 812 807 809 810 808 809 804 799 799 794 790 789 789 791 791
824 824 824 824 823 823 823 823 823 823 823 823 822 822 822 822 821 821 821 821 821 820 820 820 820 819 819 818 816 816 814 812 811 810 808 808 809 810 810 810 810 811 811 812 812 812 813 814 813 814 817 820 819 820 822 820 821 824 829 837 833 823 819 815 813 814 813 813 813 813 811 811 811 809 807 809 810 809 809 805 802 799 792 789 788 788 789 789
823 823 823 823 823 823 823 823 822 822 822 822 822 822 822 821 821 821 820 821 820 820 820 819 819 818 818 817 817 816 813 814 814 810 808 808 809 810 810 810 810 811 811 812 812 812 812 813 813 814 818 822 821 821 823 821 822 824 827 832 825 819 820 815 811 812 811 810 813 813 812 812 809 807 808 809 812 810 805 801 800 797 790 788 787 786 786 787
823 823 823 823 822 822 822 822 822 822 822 822 822 821 821 821 821 820 820 820 820 820 819 819 818 818 818 816 817 815 815 821 816 807 809 809 809 810 809 810 810 810 811 811 811 811 812 812 813 816 820 823 823 823 823 818 819 823 824 823 818 818 821 814 810 811 810 810 811 812 813 811 807 807 807 809 813 807 798 796 795 792 788 786 786 785 784 785
823 823 823 822 822 822 822 822 822 822 821 821 821 821 821 820 820 819 819 819 819 819 818 818 818 817 817 816 816 814 818 823 812 806 809 808 809 809 809 809 809 810 810 811 811 811 812 812 815 819 821 823 824 823 820 817 817 823 823 818 816 817 818 814 811 811 811 811 812 811 810 808 809 809 806 807 807 798 792 791 791 789 785 784 784 784 784 784
823 822 822 822 822 822 821 821 821 821 821 821 821 820 820 819 819 819 818 818 818 818 817 817 817 817 816 815 815 814 817 816 807 807 809 807 809 808 808 808 808 809 809 810 810 811 812 815 818 819 822 824 824 821 819 816 817 822 823 818 816 815 815 813 812 812 811 812 810 809 808 808 811 810 805 803 798 791 789 788 788 787 783 782 783 784 784 783
822 822 822 822 821 821 821 821 821 821 821 820 820 820 819 819 818 818 817 817 816 817 816 816 816 815 815 815 815 816 817 811 805 807 807 807 808 807 808 807 807 808 808 810 810 811 813 816 818 818 823 824 821 820 818 818 819 821 821 818 816 815 813 812 812 811 810 810 808 808 809 808 808 807 806 801 793 787 786 785 785 785 783 782 782 782 782 782
822 822 822 822 821 821 821 821 821 821 820 820 820 819 819 818 818 817 816 816 815 815 815 815 815 814 815 814 814 819 814 806 805 806 805 806 806 806 807 806 807 808 808 810 809 811 813 815 816 816 821 821 819 819 818 821 823 819 819 818 817 816 814 812 811 809 808 808 807 809 809 806 805 806 806 797 790 785 783 785 784 783 784 782 781 781 781 781
822 822 822 821 821 821 821 821 821 820 820 820 819 819 818 818 817 816 815 815 814 814 814 814 813 813 814 812 816 819 809 803 805 805 805 806 805 806 806 806 807 807 808 809 809 811 812 813 813 813 816 818 819 819 818 821 822 818 818 818 815 816 813 811 810 807 808 808 806 811 808 804 804 808 807 794 787 784 784 786 784 784 784 782 782 781 781 781
822 822 822 821 822 822 821 821 821 820 820 820 819 819 818 817 816 815 815 814 813 813 813 812 812 812 812 812 816 816 805 803 805 804 805 805 805 806 806 806 807 807 808 808 809 810 810 811 810 812 816 818 819 819 818 818 818 816 817 817 814 815 813 809 809 806 807 807 803 807 807 803 806 809 804 792 786 786 786 785 783 784 784 783 783 781 781 784
822 822 822 822 822 822 821 821 821 820 820 819 819 818 817 816 815 814 814 813 812 812 811 811 812 811 811 813 813 808 803 804 804 804 805 805 806 806 806 807 806 807 808 808 809 809 810 810 809 814 817 818 821 822 819 816 817 816 817 821 818 817 816 807 805 803 804 806 798 803 812 808 806 805 797 790 788 788 786 783 782 783 784 784 782 782 786 789
822 822 822 822 822 821 821 821 820 820 819 819 818 817 816 815 814 813 812 812 811 810 810 810 810 810 811 812 807 803 802 803 803 803 804 804 805 806 806 807 807 808 808 808 809 809 810 809 809 814 815 817 821 820 818 815 817 817 818 823 822 826 820 802 801 802 801 804 796 802 819 812 801 798 792 789 789 788 787 783 781 783 785 784 782 785 792 793
822 822 821 821 821 821 821 821 820 819 819 818 817 816 815 814 813 812 811 811 810 809 809 809 810 810 811 808 802 801 802 802 803 803 803 804 804 805 806 807 807 808 808 808 809 809 810 809 810 813 814 817 818 817 819 819 819 820 822 824 827 834 823 800 800 802 801 804 797 802 819 812 798 794 790 788 787 787 788 784 783 784 784 783 784 791 795 795
822 821 821 821 821 821 821 820 820 819 819 818 817 816 814 814 813 811 811 810 809 809 809 809 810 811 812 807 801 801 802 802 802 802 803 804 804 805 806 806 807 808 809 809 809 810 810 810 812 815 816 815 816 821 826 826 822 821 827 830 830 834 824 805 800 800 800 803 800 804 816 813 801 794 788 786 786 786 788 787 785 785 784 786 790 795 798 799
821 821 821 821 821 820 820 820 819 819 818 817 816 815 814 813 812 812 811 810 810 809 809 811 811 812 813 807 801 802 802 802 802 802 803 803 804 805 805 807 807 808 809 809 810 810 810 811 813 816 817 817 821 826 831 834 829 824 829 832 829 831 828 814 802 797 799 802 804 807 812 810 802 794 786 784 785 785 787 788 785 786 789 793 797 799 800 801
821 821 820 820 820 820 820 820 819 819 818 817 816 814 813 812 812 811 810 810 810 810 810 811 811 813 810 804 803 802 801 801 801 802 802 803 804 804 805 806 807 808 809 810 810 811 811 813 816 818 818 821 823 826 836 843 837 829 828 830 827 825 826 820 809 801 800 803 806 807 810 808 801 795 789 784 783 784 787 787 786 790 796 798 800 801 802 802
820 820 820 820 819 819 819 819 819 818 817 816 815 814 812 811 811 811 811 810 810 810 812 812 813 816 811 803 803 801 799 800 801 801 802 803 804 804 805 806 807 809 810 812 812 813 815 815 818 822 823 825 825 828 838 837 830 827 826 827 825 822 822 820 814 805 801 804 806 807 810 809 802 796 793 786 783 785 788 788 791 796 800 801 802 803 804 804
818 819 819 819 819 819 819 818 818 817 816 815 814 812 811 810 811 811 810 811 811 810 810 810 810 812 808 802 801 800 800 800 801 802 802 803 804 804 805 806 807 809 813 816 816 815 816 819 823 827 826 824 823 825 827 822 819 820 821 823 825 824 821 815 809 803 801 806 807 807 809 808 803 797 793 785 782 787 789 790 797 801 801 803 804 805 806 807
817 818 818 818 818 818 818 818 817 816 815 814 813 811 811 812 812 812 811 810 808 805 804 805 804 803 801 799 799 800 801 801 802 802 802 803 803 805 806 806 809 812 814 816 818 816 816 824 828 824 819 815 815 817 816 815 816 818 820 822 822 823 821 812 808 803 800 807 808 805 807 806 801 797 790 783 783 789 790 794 802 804 805 806 807 808 809 810
816 817 817 817 817 816 817 817 816 815 815 813 812 811 812 813 814 814 812 808 803 801 801 800 799 799 797 796 797 798 799 801 802 801 803 803 803 806 807 808 813 816 815 815 817 815 817 826 825 815 808 807 810 813 813 815 817 818 820 822 822 822 819 811 808 804 801 809 810 804 808 807 800 797 789 782 788 792 792 798 805 805 808 809 810 812 812 812
815 815 816 816 816 816 816 815 815 814 813 813 812 811 812 812 813 813 813 810 802 798 799 797 796 797 794 794 795 795 797 801 803 803 802 802 804 806 806 809 815 815 813 816 819 821 825 827 818 808 806 807 810 811 812 814 816 818 819 822 824 821 818 813 807 804 803 809 811 806 810 808 801 797 789 785 793 800 798 801 806 807 809 811 812 813 814 814
813 813 815 815 815 815 815 814 814 813 812 812 811 811 811 812 812 811 813 814 806 796 795 795 794 794 792 793 793 794 798 799 802 803 801 803 805 805 806 810 813 812 813 817 818 825 830 822 810 806 809 811 812 810 810 813 814 815 816 820 822 819 822 820 810 807 806 808 810 808 811 810 802 796 792 794 799 803 805 806 808 810 811 813 815 815 815 816
811 812 813 813 814 815 814 814 813 812 812 811 811 811 811 811 811 812 812 813 808 797 791 791 791 790 791 792 792 794 797 796 798 800 799 801 803 804 805 806 811 813 813 813 813 818 818 808 802 805 809 812 814 812 811 815 816 816 815 817 818 816 819 819 813 810 807 807 806 808 813 809 801 795 794 801 804 804 808 809 811 813 813 815 815 815 816 817
809 811 811 812 813 813 813 813 811 811 811 810 811 810 811 811 810 812 812 813 812 800 791 789 789 790 790 791 792 793 795 796 796 797 797 799 801 803 803 801 806 812 810 809 813 816 812 803 801 804 807 809 812 812 811 813 817 818 813 811 812 812 814 814 813 813 815 816 809 810 822 814 798 795 794 796 802 805 809 812 814 816 816 816 816 817 818 818
807 809 809 810 811 812 813 812 810 811 810 809 810 809 811 811 810 812 812 818 816 799 791 792 790 791 790 791 792 792 797 799 796 796 797 798 799 799 803 801 801 806 805 806 811 811 806 801 801 803 805 807 810 811 809 810 819 822 813 807 808 810 813 813 813 816 822 824 814 812 826 821 804 798 790 787 797 805 810 814 816 818 819 819 818 819 819 819
805 806 808 809 809 811 812 810 810 810 809 809 808 809 810 809 811 810 812 824 816 792 789 794 791 791 791 791 791 793 801 800 796 797 797 799 798 797 804 804 801 803 800 803 812 807 800 802 803 803 805 808 811 810 806 808 818 821 812 809 809 808 812 813 813 818 820 823 821 815 820 825 816 803 788 783 795 806 811 816 818 820 822 822 821 821 821 822
803 804 805 806 807 808 809 809 809 808 807 808 806 809 809 808 811 809 817 830 809 783 787 792 790 791 790 792 792 794 799 797 798 801 797 798 800 799 804 804 803 804 799 804 814 806 799 803 803 803 807 811 810 806 805 807 814 815 811 811 811 809 813 813 815 821 822 827 830 821 819 826 818 801 790 788 796 805 810 815 819 820 823 823 823 822 822 824
801 802 803 804 805 806 807 808 808 807 807 807 807 809 807 809 810 810 825 829 798 780 788 790 791 793 791 794 795 794 798 797 799 801 798 799 800 800 804 804 803 804 800 803 808 803 801 804 802 803 807 808 805 805 807 807 809 811 811 812 812 813 815 817 821 824 827 831 830 821 820 824 813 794 789 792 795 799 806 813 817 819 821 823 823 823 823 824
798 799 800 802 803 804 805 805 805 806 806 806 807 808 807 810 812 820 832 820 792 786 791 790 792 793 794 798 798 796 797 798 799 800 800 801 801 801 803 803 803 804 804 805 805 803 802 803 803 801 802 801 801 808 811 809 809 810 811 812 815 819 820 823 825 825 832 832 822 815 814 819 815 795 784 787 786 790 802 811 817 820 821 823 823 823 824 825
795 797 798 799 800 801 802 802 802 804 806 806 807 807 809 812 815 824 823 801 789 792 791 792 795 793 795 798 798 797 797 800 800 800 802 803 804 805 805 805 805 808 811 809 807 808 806 804 802 797 797 799 801 806 811 812 811 810 811 814 818 822 823 828 830 832 838 828 811 810 812 818 819 797 779 781 783 784 792 803 812 818 821 823 824 825 825 825
792 794 795 797 798 799 800 800 799 802 804 806 806 806 811 817 818 817 807 792 791 792 787 791 794 792 794 795 795 796 797 800 801 800 802 805 807 807 806 804 803 809 815 812 809 810 807 804 802 798 798 799 800 807 813 814 812 811 813 819 826 830 830 832 835 836 837 823 807 807 811 816 813 792 777 783 790 789 789 797 809 816 821 824 825 826 827 826
789 791 794 796 797 798 798 798 799 801 803 805 807 807 812 820 815 804 797 791 790 787 783 785 788 789 791 793 793 793 795 797 798 799 799 803 807 806 804 801 798 801 807 810 811 808 805 804 803 803 800 796 798 806 810 811 813 814 814 818 826 833 835 833 831 833 830 818 806 804 809 810 801 790 788 795 801 800 797 804 813 817 822 825 826 827 827 828
788 790 792 793 795 796 797 799 799 800 802 804 806 808 814 817 807 797 794 789 784 783 783 783 787 788 789 791 790 789 792 795 795 797 798 802 808 806 802 800 799 798 800 806 809 805 807 805 801 801 798 795 797 799 800 803 810 813 810 813 817 818 823 824 821 824 822 814 808 807 809 803 793 796 807 811 811 810 809 813 817 821 824 825 826 827 827 828
786 788 790 791 792 794 795 798 799 800 802 803 805 809 811 808 800 796 793 786 782 784 784 784 787 791 792 791 788 785 788 792 793 795 798 801 804 802 797 794 796 797 799 805 805 804 808 803 795 797 796 794 797 796 796 801 808 811 810 812 812 806 807 814 816 816 818 819 815 808 804 798 796 808 818 816 815 816 817 819 820 823 825 826 827 827 827 828
785 787 789 789 789 790 793 796 798 799 800 801 805 807 804 797 791 790 785 779 780 783 787 790 790 794 797 793 789 787 785 788 791 794 797 797 797 795 790 787 788 791 793 798 801 801 806 803 796 798 797 795 798 796 795 799 802 808 811 808 806 802 800 809 817 813 817 825 816 802 800 798 799 810 818 817 818 821 822 823 824 825 826 827 828 827 827 827
784 786 787 786 786 787 790 794 796 798 798 799 800 798 795 790 785 783 780 778 781 782 787 794 792 792 796 793 791 789 788 790 791 793 797 796 793 788 785 784 785 786 785 787 792 796 801 802 797 796 795 795 799 797 795 797 797 803 809 803 801 804 802 808 819 820 821 826 815 800 802 803 798 805 817 819 818 822 824 824 825 827 827 827 827 827 827 828
783 785 785 783 783 785 788 792 794 796 797 796 794 791 790 787 781 778 778 778 781 783 788 794 791 789 792 793 792 790 791 793 792 794 797 794 789 783 783 786 787 787 784 782 788 793 797 802 799 797 796 796 797 798 798 799 798 799 802 799 801 809 809 810 820 825 824 824 817 804 801 801 796 799 810 813 812 819 824 825 826 826 826 826 826 826 827 828
783 785 783 779 781 784 787 790 792 794 794 791 789 788 786 784 779 777 778 779 782 785 789 791 790 790 793 794 793 791 792 794 794 795 796 792 788 783 782 786 787 789 786 783 788 793 795 803 804 799 798 797 796 799 801 801 800 799 800 800 802 807 811 811 813 817 819 821 819 812 805 799 795 797 799 799 805 817 822 823 825 824 824 825 825 826 827 827
782 784 782 778 779 782 785 789 790 792 790 784 783 785 783 781 779 778 778 778 782 786 788 790 791 793 794 795 795 794 794 795 795 796 796 791 788 786 785 785 786 789 789 786 790 795 796 803 807 802 800 801 799 799 800 798 799 801 802 804 805 805 809 812 809 807 812 819 818 816 811 799 795 801 797 792 803 814 815 818 821 822 824 824 825 825 825 826
781 783 780 778 780 782 785 789 788 787 785 781 781 782 781 779 778 779 779 778 781 785 786 788 790 792 795 796 797 796 796 798 798 799 799 794 791 791 790 788 787 789 790 789 793 797 798 803 807 805 803 802 799 796 797 799 802 804 805 806 807 807 810 816 816 806 805 812 812 813 813 800 796 806 803 798 805 810 812 816 820 822 823 823 824 824 824 824
779 781 779 778 781 782 784 784 782 781 781 779 778 779 778 777 778 779 780 780 782 784 786 787 788 791 794 795 796 796 797 799 801 801 800 796 792 791 790 790 788 788 791 795 798 800 801 805 808 807 804 802 799 796 798 800 800 803 806 806 806 808 809 816 819 810 807 810 807 810 814 805 803 810 808 805 808 809 813 816 817 820 821 820 822 822 823 823
778 779 778 778 780 782 783 780 778 779 779 775 775 776 776 777 778 778 779 781 783 784 787 787 787 788 790 791 793 795 796 799 798 797 797 795 792 792 791 790 789 789 793 797 800 801 802 806 810 808 803 800 798 798 800 801 801 804 808 808 808 810 810 813 816 815 819 818 811 815 815 804 806 813 810 810 811 811 815 814 813 817 818 818 820 819 821 822
777 778 778 779 780 782 782 778 776 778 778 776 777 777 776 776 777 777 778 780 780 782 785 785 784 786 786 786 789 791 793 797 795 793 793 793 793 795 794 790 789 793 795 796 797 800 803 806 812 815 814 810 804 800 802 804 807 811 812 812 813 812 814 818 817 820 827 820 813 821 817 801 806 815 812 811 811 811 813 812 812 813 813 816 818 818 820 821
777 779 779 779 780 780 779 775 775 776 776 778 779 778 778 776 773 772 775 777 776 778 781 781 781 782 782 785 787 788 789 791 793 793 793 794 795 796 796 793 792 794 797 797 795 797 802 805 809 814 819 819 811 805 807 811 813 814 813 813 813 813 816 818 818 823 827 819 816 823 816 801 803 809 810 810 810 809 810 811 812 811 810 812 814 816 819 820
778 780 780 780 780 779 776 774 777 777 774 777 778 776 775 775 771 769 772 774 774 775 777 778 779 781 782 784 786 788 788 789 792 793 793 795 797 798 798 797 795 796 797 797 796 798 805 808 806 806 808 809 807 807 811 816 817 815 814 813 813 815 817 819 823 827 824 822 822 817 810 807 805 801 804 808 809 808 807 808 810 810 809 811 813 816 819 819
776 775 773 775 777 776 775 774 776 775 772 773 773 770 770 772 771 770 771 771 771 773 776 778 778 779 782 783 785 788 787 788 791 792 792 794 797 801 801 799 800 799 798 798 798 800 806 809 807 808 808 806 808 812 814 818 819 818 817 815 813 814 817 821 827 825 820 825 824 808 803 811 808 800 802 806 805 805 803 803 805 805 807 811 814 817 818 818
773 769 765 765 767 768 768 768 769 772 771 769 768 764 765 768 769 770 770 770 771 772 775 779 778 777 778 778 782 786 786 789 791 790 790 793 798 803 804 802 803 802 800 801 800 801 807 809 807 812 814 809 810 817 818 818 820 819 818 817 814 813 816 821 825 820 818 824 820 807 806 811 807 803 804 803 802 802 803 804 805 806 809 812 814 816 816 817
771 769 765 763 763 761 759 758 762 767 768 768 768 763 762 764 765 766 767 771 774 772 772 776 776 776 776 775 778 782 783 786 789 788 788 792 796 800 803 804 804 803 803 802 802 804 809 812 811 813 815 813 814 820 821 820 821 820 819 818 815 814 817 820 820 816 817 821 815 811 813 811 805 804 803 801 803 805 806 807 807 807 809 811 813 813 814 816
771 771 768 767 765 762 759 758 760 764 765 766 766 761 760 762 762 763 765 767 771 771 770 773 772 773 775 775 777 780 778 778 781 784 787 790 792 796 799 800 802 805 805 804 806 808 810 815 816 816 819 819 818 822 824 821 822 822 819 816 815 817 819 819 818 816 818 818 813 812 817 811 804 801 801 803 806 807 808 809 808 809 809 810 811 812 813 814
772 771 771 772 768 762 760 760 760 762 763 762 760 758 760 761 760 762 765 765 767 767 767 768 769 773 777 777 778 780 780 779 780 783 787 788 790 793 796 797 800 804 806 807 809 808 810 817 817 817 824 822 818 825 826 819 823 826 820 814 812 816 817 814 813 813 812 811 811 814 817 811 803 800 802 806 807 806 807 809 809 810 810 809 810 811 812 813
773 772 771 775 773 763 759 759 760 761 758 755 755 757 758 759 758 761 766 767 767 766 767 767 768 773 777 777 778 781 783 784 786 790 793 792 793 796 797 799 800 802 805 809 811 810 811 816 816 818 826 825 823 829 826 825 835 831 813 805 807 809 812 811 809 807 805 807 811 812 809 804 800 800 803 806 806 806 807 809 809 810 810 810 810 810 811 811